TimeCDT,TemperatureF,Dew PointF,Humidity,Sea Level PressureIn,VisibilityMPH,Wind Direction,Wind SpeedMPH,Gust SpeedMPH,PrecipitationIn,Events,Conditions,WindDirDegrees,DateUTC
12:53 AM,55.0,50.0,83,29.93,10.0,SSE,9.2,-,N/A,,Clear,150,2013-09-23 05:53:00
1:53 AM,54.0,48.9,83,29.94,10.0,SSE,8.1,-,N/A,,Clear,150,2013-09-23 06:53:00
2:53 AM,53.1,48.9,86,29.94,10.0,SSE,9.2,-,N/A,,Clear,150,2013-09-23 07:53:00
3:53 AM,51.1,48.9,92,29.93,10.0,SE,8.1,-,N/A,,Clear,140,2013-09-23 08:53:00
4:53 AM,50.0,48.0,93,29.94,10.0,SSE,8.1,-,N/A,,Clear,150,2013-09-23 09:53:00
5:53 AM,50.0,48.0,93,29.94,10.0,SE,11.5,-,N/A,,Clear,140,2013-09-23 10:53:00
6:53 AM,48.9,46.9,93,29.96,10.0,SE,11.5,-,N/A,,Clear,140,2013-09-23 11:53:00
7:53 AM,50.0,46.9,89,29.97,10.0,SE,9.2,-,N/A,,Clear,140,2013-09-23 12:53:00
8:53 AM,53.1,48.0,83,29.97,10.0,SE,13.8,-,N/A,,Clear,140,2013-09-23 13:53:00
9:53 AM,57.9,50.0,75,29.98,10.0,SE,15.0,-,N/A,,Clear,140,2013-09-23 14:53:00
10:53 AM,63.0,51.1,65,29.98,10.0,SSE,11.5,18.4,N/A,,Clear,160,2013-09-23 15:53:00
11:53 AM,68.0,52.0,56,29.96,10.0,SSE,18.4,24.2,N/A,,Clear,160,2013-09-23 16:53:00
12:53 PM,71.1,52.0,51,29.93,10.0,SSE,13.8,28.8,N/A,,Clear,150,2013-09-23 17:53:00
1:53 PM,73.9,52.0,46,29.91,10.0,South,18.4,26.5,N/A,,Clear,170,2013-09-23 18:53:00
2:53 PM,73.9,51.1,45,29.89,10.0,SSE,17.3,27.6,N/A,,Clear,160,2013-09-23 19:53:00
3:53 PM,73.9,50.0,43,29.88,10.0,SE,23.0,28.8,N/A,,Clear,140,2013-09-23 20:53:00
4:53 PM,73.9,48.9,41,29.88,10.0,SSE,16.1,28.8,N/A,,Clear,150,2013-09-23 21:53:00
5:53 PM,72.0,48.0,43,29.88,10.0,SE,16.1,26.5,0.00,,Clear,140,2013-09-23 22:53:00
6:53 PM,66.9,51.1,57,29.89,10.0,SE,9.2,-,0.00,,Clear,130,2013-09-23 23:53:00
7:53 PM,63.0,50.0,63,29.89,10.0,ESE,10.4,-,N/A,,Clear,120,2013-09-24 00:53:00
8:53 PM,59.0,51.1,75,29.91,10.0,SE,10.4,-,0.00,,Clear,130,2013-09-24 01:53:00
9:53 PM,57.9,50.0,75,29.94,10.0,SE,8.1,-,N/A,,Clear,140,2013-09-24 02:53:00
10:53 PM,57.0,50.0,77,29.93,10.0,ESE,11.5,-,N/A,,Clear,120,2013-09-24 03:53:00
11:53 PM,55.0,50.0,83,29.92,10.0,ESE,9.2,-,0.00,,Clear,120,2013-09-24 04:53:00